Weather History for Weslaco, TX

Change the Weather History Date:

Monday, September 30, 2013

  Actual Average (KMFE) Record (KMFE)
Temperature  
Mean Temperature 82 °F 80 °F  
Max Temperature 91 °F 90 °F 98 °F (1966)
Min Temperature 73 °F 70 °F 54 °F (1967)
Degree Days  
Heating Degree Days 0 0  
Month to date heating degree days 0  
Since 1 July heating degree days 0  
Cooling Degree Days 17 15  
Month to date cooling degree days 548  
Year to date cooling degree days 3799  
Growing Degree Days 32 (Base 50)    
Moisture  
Dew Point 71 °F    
Average Humidity 72    
Maximum Humidity 88    
Minimum Humidity 48    
Precipitation  
Precipitation 0.00 in 0.11 in 3.20 in (1985)
Month to date precipitation 4.47  
Year to date precipitation 18.04  
Sea Level Pressure  
Sea Level Pressure 29.86 in    
Wind  
Wind Speed 3 mph (SW)    
Max Wind Speed 9 mph    
Max Gust Speed -    
Visibility 9 miles    
Events      
T = Trace of Precipitation, MM = Missing Value Source: NWS Daily Summary

Daily Weather History Graph

Daily Weather History Graph

Search for Another Location

Airport:

Trip Planner

Search our weather history database for the weather conditions in past years. The results will help you decide how hot, cold, wet, or windy it might be!

Date:

Astronomy

Sep. 30, 2013 Rise Set
Actual Time 7:23 AM CDT 7:19 PM CDT
Civil Twilight 7:00 AM CDT 7:42 PM CDT
Nautical Twilight 6:34 AM CDT 8:08 PM CDT
Astronomical Twilight 6:07 AM CDT 8:35 PM CDT
Moon 3:23 AM CDT (9/30) 4:31 PM CDT (9/30)
Length of Visible Light 12h 41m
Length of Day
11h 55m
Waning Crescent, 19% of the Moon is Illuminated
Sep 30
Waning Crescent
Oct 4
New
Oct 11
First Quarter
Oct 18
Full
Oct 26
Last Quarter

Hourly Weather History & Observations

Time (CDT) Temp. Heat Index Dew Point Humidity Pressure Visibility Wind Dir Wind Speed Gust Speed Precip Events Conditions
12:15 AM 76.5 °F - 70.7 °F 82% 29.93 in 10.0 mi Calm Calm - N/A   Scattered Clouds
12:35 AM 76.1 °F - 70.9 °F 84% 29.93 in 10.0 mi NW 3.5 mph - N/A   Scattered Clouds
12:55 AM 75.9 °F - 70.9 °F 84% 29.92 in 10.0 mi NW 3.5 mph - N/A   Scattered Clouds
1:15 AM 75.9 °F - 70.7 °F 84% 29.92 in 10.0 mi NW 3.5 mph - N/A   Scattered Clouds
1:35 AM 76.1 °F - 70.7 °F 83% 29.92 in 10.0 mi WNW 4.6 mph - N/A   Mostly Cloudy
1:55 AM 75.7 °F - 70.7 °F 84% 29.91 in 10.0 mi NW 4.6 mph - N/A   Scattered Clouds
2:15 AM 75.6 °F - 70.5 °F 84% 29.91 in 7.0 mi WNW 3.5 mph - N/A   Scattered Clouds
2:35 AM 75.7 °F - 70.2 °F 83% 29.90 in 10.0 mi West 3.5 mph - N/A   Mostly Cloudy
2:55 AM 75.4 °F - 70.7 °F 85% 29.90 in 10.0 mi West 3.5 mph - N/A   Overcast
3:15 AM 75.2 °F - 70.7 °F 86% 29.88 in 10.0 mi WNW 3.5 mph - N/A   Light Drizzle
3:35 AM 75.2 °F - 70.7 °F 86% 29.88 in 10.0 mi Calm Calm - N/A   Mostly Cloudy
3:55 AM 75.0 °F - 70.3 °F 85% 29.87 in 10.0 mi NW 4.6 mph - N/A   Scattered Clouds
4:15 AM 74.7 °F - 70.3 °F 86% 29.87 in 10.0 mi Calm Calm - N/A   Scattered Clouds
4:35 AM 74.5 °F - 70.3 °F 87% 29.87 in 10.0 mi WNW 3.5 mph - N/A   Clear
4:55 AM 74.3 °F - 70.5 °F 88% 29.87 in 10.0 mi WNW 4.6 mph - N/A   Clear
5:15 AM 74.3 °F - 70.0 °F 86% 29.87 in 10.0 mi WNW 4.6 mph - N/A   Clear
5:35 AM 74.3 °F - 69.8 °F 86% 29.87 in 10.0 mi West 4.6 mph - N/A   Scattered Clouds
5:55 AM 74.1 °F - 69.8 °F 86% 29.87 in 10.0 mi West 4.6 mph - N/A   Clear
6:15 AM 73.8 °F - 69.8 °F 87% 29.88 in 10.0 mi Calm Calm - N/A   Clear
6:35 AM 74.1 °F - 70.2 °F 87% 29.88 in 10.0 mi WNW 3.5 mph - N/A   Mostly Cloudy
6:55 AM 74.3 °F - 69.8 °F 86% 29.88 in 10.0 mi West 3.5 mph - N/A   Overcast
7:15 AM 74.3 °F - 69.8 °F 86% 29.88 in 10.0 mi WNW 4.6 mph - N/A   Overcast
7:35 AM 74.3 °F - 69.8 °F 86% 29.88 in 10.0 mi Calm Calm - N/A   Overcast
7:55 AM 74.7 °F - 70.0 °F 85% 29.88 in 10.0 mi WNW 3.5 mph - N/A   Overcast
8:15 AM 75.2 °F - 70.2 °F 84% 29.88 in 10.0 mi West 3.5 mph - N/A   Overcast
8:35 AM 76.1 °F - 70.5 °F 83% 29.89 in 10.0 mi Calm Calm - N/A   Overcast
8:55 AM 76.3 °F - 70.7 °F 83% 29.89 in 7.0 mi Calm Calm - N/A   Overcast
9:15 AM 76.3 °F - 70.7 °F 83% 29.89 in 7.0 mi Calm Calm - N/A   Overcast
9:35 AM 76.6 °F - 70.9 °F 82% 29.90 in 7.0 mi WNW 3.5 mph - N/A   Overcast
9:55 AM 77.0 °F - 71.2 °F 82% 29.90 in 7.0 mi NW 3.5 mph - N/A   Overcast
10:15 AM 77.5 °F - 71.2 °F 81% 29.90 in 7.0 mi Calm Calm - N/A   Overcast
10:35 AM 79.0 °F - 71.4 °F 78% 29.91 in 7.0 mi Calm Calm - N/A   Mostly Cloudy
10:55 AM 80.4 °F 84.1 °F 71.2 °F 73% 29.90 in 7.0 mi Calm Calm - N/A   Mostly Cloudy
11:15 AM 82.4 °F 86.7 °F 71.1 °F 68% 29.90 in 10.0 mi Calm Calm - N/A   Mostly Cloudy
11:35 AM 83.8 °F 88.6 °F 70.9 °F 65% 29.90 in 10.0 mi Calm Calm - N/A   Overcast
11:55 AM 83.5 °F 88.2 °F 71.2 °F 66% 29.90 in 7.0 mi Calm Calm - N/A   Overcast
12:15 PM 86.5 °F 91.8 °F 70.7 °F 59% 29.89 in 7.0 mi Calm Calm - N/A   Mostly Cloudy
12:35 PM 87.1 °F 91.6 °F 69.4 °F 56% 29.88 in 10.0 mi WSW 6.9 mph - N/A   Scattered Clouds
12:55 PM 87.6 °F 92.7 °F 70.3 °F 56% 29.87 in 10.0 mi WSW 4.6 mph - N/A   Clear
1:15 PM 87.4 °F 92.7 °F 70.3 °F 57% 29.87 in 10.0 mi WNW 3.5 mph - N/A   Scattered Clouds
1:35 PM 87.1 °F 92.4 °F 70.7 °F 58% 29.86 in 10.0 mi SW 3.5 mph - N/A   Mostly Cloudy
1:55 PM 89.4 °F 95.3 °F 70.7 °F 54% 29.85 in 7.0 mi WSW 5.8 mph - N/A   Overcast
2:15 PM 90.5 °F 95.5 °F 69.3 °F 50% 29.85 in 7.0 mi Calm Calm - N/A   Mostly Cloudy
2:35 PM 90.5 °F 95.1 °F 68.9 °F 49% 29.83 in 10.0 mi SW 4.6 mph - N/A   Mostly Cloudy
2:55 PM 89.4 °F 93.5 °F 68.7 °F 50% 29.83 in 10.0 mi SSW 3.5 mph - N/A   Mostly Cloudy
3:15 PM 90.3 °F 94.7 °F 68.5 °F 49% 29.82 in 10.0 mi SSW 6.9 mph - N/A   Mostly Cloudy
3:35 PM 88.7 °F 92.6 °F 68.7 °F 51% 29.81 in 7.0 mi Calm Calm - N/A   Mostly Cloudy
3:55 PM 89.8 °F 93.3 °F 67.6 °F 48% 29.80 in 10.0 mi South 6.9 mph - N/A   Overcast
4:15 PM 90.1 °F 94.4 °F 68.9 °F 49% 29.80 in 10.0 mi South 8.1 mph - N/A   Overcast
4:35 PM 90.5 °F 95.1 °F 68.9 °F 49% 29.79 in 7.0 mi South 6.9 mph - N/A   Scattered Clouds
4:55 PM 90.9 °F 95.3 °F 68.7 °F 48% 29.79 in 10.0 mi SSW 4.6 mph - N/A   Clear
5:15 PM 91.2 °F 96.0 °F 68.9 °F 48% 29.79 in 7.0 mi South 6.9 mph - N/A   Clear
5:35 PM 90.7 °F 95.4 °F 69.1 °F 49% 29.79 in 10.0 mi SSE 6.9 mph - N/A   Clear
5:55 PM 89.6 °F 94.3 °F 69.4 °F 51% 29.79 in 10.0 mi South 6.9 mph - N/A   Clear
6:15 PM 89.2 °F 94.1 °F 69.4 °F 52% 29.80 in 7.0 mi South 3.5 mph - N/A   Clear
6:35 PM 88.5 °F 93.5 °F 69.8 °F 54% 29.80 in 10.0 mi SSE 6.9 mph - N/A   Clear
6:55 PM 87.4 °F 92.3 °F 70.0 °F 56% 29.80 in 10.0 mi South 8.1 mph - N/A   Clear
7:15 PM 86.4 °F 91.4 °F 70.3 °F 59% 29.80 in 10.0 mi South 6.9 mph - N/A   Clear
7:35 PM 85.8 °F 91.1 °F 71.1 °F 61% 29.80 in 10.0 mi SSE 6.9 mph - N/A   Clear
7:55 PM 85.1 °F 90.4 °F 71.4 °F 63% 29.81 in 10.0 mi South 3.5 mph - N/A   Clear
8:15 PM 84.2 °F 90.3 °F 72.5 °F 68% 29.81 in 10.0 mi SSE 5.8 mph - N/A   Clear
8:35 PM 83.8 °F 90.1 °F 73.2 °F 70% 29.82 in 10.0 mi SSE 5.8 mph - N/A   Clear
8:55 PM 83.3 °F 89.6 °F 73.4 °F 72% 29.83 in 10.0 mi South 6.9 mph - N/A   Clear
9:15 PM 82.4 °F 88.2 °F 73.4 °F 74% 29.83 in 10.0 mi South 8.1 mph - N/A   Clear
9:35 PM 81.9 °F 87.3 °F 73.4 °F 75% 29.84 in 10.0 mi South 5.8 mph - N/A   Clear
9:55 PM 81.5 °F 86.9 °F 73.6 °F 77% 29.85 in 7.0 mi South 6.9 mph - N/A   Clear
10:15 PM 80.8 °F 85.8 °F 73.6 °F 79% 29.86 in 10.0 mi South 9.2 mph - N/A   Clear
10:35 PM 80.6 °F 85.4 °F 73.4 °F 79% 29.86 in 10.0 mi South 8.1 mph - N/A   Clear
10:55 PM 80.1 °F 84.4 °F 73.2 °F 80% 29.86 in 10.0 mi SSE 8.1 mph - N/A   Clear
11:15 PM 79.7 °F - 73.4 °F 81% 29.86 in 10.0 mi South 6.9 mph - N/A   Scattered Clouds
11:35 PM 79.7 °F - 73.4 °F 81% 29.86 in 10.0 mi SSE 6.9 mph - N/A   Scattered Clouds
11:55 PM 79.3 °F - 73.4 °F 82% 29.85 in 10.0 mi South 4.6 mph - N/A   Clear